Time,TemperatureF,DewpointF,PressureIn,WindDirection,WindDirectionDegrees,WindSpeedMPH,WindSpeedGustMPH,Humidity,HourlyPrecipIn,Conditions,Clouds,dailyrainin,SolarRadiationWatts/m^2,SoftwareType,DateUTC
2013-03-10 00:02:00,32.0,31.0,-100.00,SSE,165,8.0,16.0,96,0.00,,,0.00,0.000000,,2013-03-10 05:02:00,
2013-03-10 00:22:00,32.0,32.0,-100.00,SSE,166,10.0,16.0,99,0.00,,,0.00,0.000000,,2013-03-10 05:22:00,
2013-03-10 00:32:00,32.0,32.0,-100.00,SSE,166,10.0,16.0,99,0.00,,,0.00,0.000000,,2013-03-10 05:32:00,
2013-03-10 00:42:00,32.0,32.0,-100.00,SSE,166,10.0,16.0,99,0.00,,,0.00,0.000000,,2013-03-10 05:42:00,
2013-03-10 00:52:00,32.0,32.0,-100.00,SSE,166,10.0,16.0,99,0.00,,,0.00,0.000000,,2013-03-10 05:52:00,
2013-03-10 01:02:00,32.0,32.0,-100.00,SSE,166,10.0,16.0,99,0.00,,,0.00,0.000000,,2013-03-10 06:02:00,
2013-03-10 01:32:00,32.0,32.0,-100.00,South,169,7.0,16.0,99,0.00,,,0.00,0.000000,,2013-03-10 06:32:00,
2013-03-10 01:42:00,32.0,32.0,-100.00,South,169,7.0,16.0,99,0.00,,,0.00,0.000000,,2013-03-10 06:42:00,
2013-03-10 01:52:00,32.0,32.0,-100.00,South,169,7.0,16.0,99,0.00,,,0.00,0.000000,,2013-03-10 06:52:00,
2013-03-10 03:02:00,32.0,32.0,-100.00,South,169,7.0,16.0,99,0.00,,,0.00,0.000000,,2013-03-10 07:02:00,
2013-03-10 03:32:00,32.0,32.0,-100.00,South,170,9.0,15.0,99,0.00,,,0.00,0.000000,,2013-03-10 07:32:00,
2013-03-10 03:42:00,32.0,32.0,-100.00,South,170,9.0,15.0,99,0.00,,,0.00,0.000000,,2013-03-10 07:42:00,
2013-03-10 03:52:00,32.0,32.0,-100.00,South,170,9.0,15.0,99,0.00,,,0.00,0.000000,,2013-03-10 07:52:00,
2013-03-10 04:01:00,32.0,32.0,-100.00,South,170,9.0,15.0,99,0.00,,,0.00,0.000000,,2013-03-10 08:01:00,
2013-03-10 04:32:00,32.0,32.0,-100.00,SSE,166,7.0,14.0,100,0.00,,,0.00,0.000000,,2013-03-10 08:32:00,
2013-03-10 04:42:00,32.0,32.0,-100.00,SSE,166,7.0,14.0,100,0.00,,,0.00,0.000000,,2013-03-10 08:42:00,
2013-03-10 04:52:00,32.0,32.0,-100.00,SSE,166,7.0,14.0,100,0.00,,,0.00,0.000000,,2013-03-10 08:52:00,
2013-03-10 05:02:00,32.0,32.0,-100.00,SSE,166,7.0,14.0,100,0.00,,,0.00,0.000000,,2013-03-10 09:02:00,
2013-03-10 05:32:00,33.0,33.0,-100.00,SSE,162,6.0,12.0,100,0.00,,,0.00,0.000000,,2013-03-10 09:32:00,
2013-03-10 05:42:00,33.0,33.0,-100.00,SSE,162,6.0,12.0,100,0.00,,,0.00,0.000000,,2013-03-10 09:42:00,
2013-03-10 05:52:00,33.0,33.0,-100.00,SSE,162,6.0,12.0,100,0.00,,,0.00,0.000000,,2013-03-10 09:52:00,
2013-03-10 06:01:00,33.0,33.0,-100.00,SSE,162,6.0,12.0,100,0.00,,,0.00,0.000000,,2013-03-10 10:01:00,
2013-03-10 06:32:00,33.0,33.0,-100.00,SSE,168,6.0,11.0,100,0.00,,,0.00,0.000000,,2013-03-10 10:32:00,
2013-03-10 06:42:00,33.0,33.0,-100.00,SSE,168,6.0,11.0,100,0.00,,,0.00,0.000000,,2013-03-10 10:42:00,
2013-03-10 06:52:00,33.0,33.0,-100.00,SSE,168,6.0,11.0,100,0.00,,,0.00,0.000000,,2013-03-10 10:52:00,
2013-03-10 07:01:00,33.0,33.0,-100.00,SSE,168,6.0,11.0,100,0.00,,,0.00,0.000000,,2013-03-10 11:01:00,
2013-03-10 10:32:00,34.0,34.0,-100.00,South,171,4.0,6.0,100,-99.99,,,0.12,26.000000,,2013-03-10 14:32:00,
2013-03-10 10:42:00,34.0,34.0,-100.00,South,171,4.0,6.0,100,-99.99,,,0.12,26.000000,,2013-03-10 14:42:00,
2013-03-10 10:52:00,34.0,34.0,-100.00,South,171,4.0,6.0,100,-99.99,,,0.12,26.000000,,2013-03-10 14:52:00,
2013-03-10 11:01:00,34.0,34.0,-100.00,South,171,4.0,6.0,100,-99.99,,,0.12,26.000000,,2013-03-10 15:01:00,
2013-03-10 11:32:00,35.0,35.0,-100.00,SW,224,2.0,8.0,100,0.07,,,0.19,42.000000,,2013-03-10 15:32:00,
2013-03-10 11:42:00,35.0,35.0,-100.00,SW,224,2.0,8.0,100,0.07,,,0.19,42.000000,,2013-03-10 15:42:00,
2013-03-10 11:52:00,35.0,35.0,-100.00,SW,224,2.0,8.0,100,0.07,,,0.19,42.000000,,2013-03-10 15:52:00,
2013-03-10 12:02:00,35.0,35.0,-100.00,SW,224,2.0,8.0,100,0.07,,,0.19,42.000000,,2013-03-10 16:02:00,
2013-03-10 12:22:00,35.0,35.0,-100.00,SSE,167,3.0,5.0,100,0.06,,,0.25,29.000000,,2013-03-10 16:22:00,
2013-03-10 12:32:00,35.0,35.0,-100.00,SSE,167,3.0,5.0,100,0.06,,,0.25,29.000000,,2013-03-10 16:32:00,
2013-03-10 12:42:00,35.0,35.0,-100.00,SSE,167,3.0,5.0,100,0.06,,,0.25,29.000000,,2013-03-10 16:42:00,
2013-03-10 12:52:00,35.0,35.0,-100.00,SSE,167,3.0,5.0,100,0.06,,,0.25,29.000000,,2013-03-10 16:52:00,
2013-03-10 13:01:00,35.0,35.0,-100.00,SSE,167,3.0,5.0,100,0.06,,,0.25,29.000000,,2013-03-10 17:01:00,
2013-03-10 15:32:00,37.0,36.0,-100.00,North,352,4.0,12.0,96,-99.99,,,0.32,89.000000,,2013-03-10 19:32:00,
2013-03-10 15:42:00,37.0,36.0,-100.00,North,352,4.0,12.0,96,-99.99,,,0.32,89.000000,,2013-03-10 19:42:00,
2013-03-10 15:53:00,37.0,36.0,-100.00,North,352,4.0,12.0,96,-99.99,,,0.32,89.000000,,2013-03-10 19:53:00,
2013-03-10 16:02:00,37.0,36.0,-100.00,North,352,4.0,12.0,96,-99.99,,,0.32,89.000000,,2013-03-10 20:02:00,
2013-03-10 16:22:00,36.0,35.0,-100.00,North,351,6.0,11.0,96,0.00,,,0.32,103.000000,,2013-03-10 20:22:00,
2013-03-10 16:33:00,36.0,35.0,-100.00,North,351,6.0,11.0,96,0.00,,,0.32,103.000000,,2013-03-10 20:33:00,
2013-03-10 16:43:00,36.0,35.0,-100.00,North,351,6.0,11.0,96,0.00,,,0.32,103.000000,,2013-03-10 20:43:00,
2013-03-10 16:53:00,36.0,35.0,-100.00,North,351,6.0,11.0,96,0.00,,,0.32,103.000000,,2013-03-10 20:53:00,
2013-03-10 17:02:00,36.0,35.0,-100.00,North,351,6.0,11.0,96,0.00,,,0.32,103.000000,,2013-03-10 21:02:00,
2013-03-10 17:33:00,35.0,34.0,-100.00,NNW,338,7.0,14.0,97,0.01,,,0.33,60.000000,,2013-03-10 21:33:00,
2013-03-10 17:43:00,35.0,34.0,-100.00,NNW,338,7.0,14.0,97,0.01,,,0.33,60.000000,,2013-03-10 21:43:00,
2013-03-10 17:53:00,35.0,34.0,-100.00,NNW,338,7.0,14.0,97,0.01,,,0.33,60.000000,,2013-03-10 21:53:00,
2013-03-10 18:03:00,35.0,34.0,-100.00,NNW,338,7.0,14.0,97,0.01,,,0.33,60.000000,,2013-03-10 22:03:00,
2013-03-10 18:33:00,34.0,33.0,-100.00,NNE,16,8.0,13.0,97,0.01,,,0.34,63.000000,,2013-03-10 22:33:00,
2013-03-10 18:43:00,34.0,33.0,-100.00,NNE,16,8.0,13.0,97,0.01,,,0.34,63.000000,,2013-03-10 22:43:00,
2013-03-10 18:53:00,34.0,33.0,-100.00,NNE,16,8.0,13.0,97,0.01,,,0.34,63.000000,,2013-03-10 22:53:00,
2013-03-10 19:03:00,34.0,33.0,-100.00,NNE,16,8.0,13.0,97,0.01,,,0.34,63.000000,,2013-03-10 23:03:00,
2013-03-10 19:33:00,33.0,32.0,-100.00,NNE,25,4.0,12.0,97,0.00,,,0.34,27.000000,,2013-03-10 23:33:00,
2013-03-10 19:43:00,33.0,32.0,-100.00,NNE,25,4.0,12.0,97,0.00,,,0.34,27.000000,,2013-03-10 23:43:00,
2013-03-10 19:53:00,33.0,32.0,-100.00,NNE,25,4.0,12.0,97,0.00,,,0.34,27.000000,,2013-03-10 23:53:00,
2013-03-10 20:02:00,33.0,32.0,-100.00,NNE,25,4.0,12.0,97,0.00,,,0.34,27.000000,,2013-03-11 00:02:00,
2013-03-10 20:33:00,32.0,32.0,-100.00,NNE,16,5.0,9.0,98,0.00,,,0.34,2.000000,,2013-03-11 00:33:00,
2013-03-10 20:43:00,32.0,32.0,-100.00,NNE,16,5.0,9.0,98,0.00,,,0.34,2.000000,,2013-03-11 00:43:00,
2013-03-10 20:53:00,32.0,32.0,-100.00,NNE,16,5.0,9.0,98,0.00,,,0.34,2.000000,,2013-03-11 00:53:00,
2013-03-10 21:03:00,32.0,32.0,-100.00,NNE,16,5.0,9.0,98,0.00,,,0.34,2.000000,,2013-03-11 01:03:00,
2013-03-10 21:33:00,32.0,32.0,-100.00,North,9,3.0,7.0,99,0.00,,,0.34,0.000000,,2013-03-11 01:33:00,
2013-03-10 21:43:00,32.0,32.0,-100.00,North,9,3.0,7.0,99,0.00,,,0.34,0.000000,,2013-03-11 01:43:00,
2013-03-10 21:53:00,32.0,32.0,-100.00,North,9,3.0,7.0,99,0.00,,,0.34,0.000000,,2013-03-11 01:53:00,
2013-03-10 22:02:00,32.0,32.0,-100.00,North,9,3.0,7.0,99,0.00,,,0.34,0.000000,,2013-03-11 02:02:00,
2013-03-10 22:32:00,32.0,32.0,-100.00,NE,43,4.0,7.0,100,0.00,,,0.34,0.000000,,2013-03-11 02:32:00,
2013-03-10 22:42:00,32.0,32.0,-100.00,NE,43,4.0,7.0,100,0.00,,,0.34,0.000000,,2013-03-11 02:42:00,
2013-03-10 22:53:00,32.0,32.0,-100.00,NE,43,4.0,7.0,100,0.00,,,0.34,0.000000,,2013-03-11 02:53:00,
2013-03-10 23:02:00,32.0,32.0,-100.00,NE,43,4.0,7.0,100,0.00,,,0.34,0.000000,,2013-03-11 03:02:00,
2013-03-10 23:32:00,32.0,32.0,-100.00,NE,56,3.0,5.0,100,0.00,,,0.34,0.000000,,2013-03-11 03:32:00,
2013-03-10 23:43:00,32.0,32.0,-100.00,NE,56,3.0,5.0,100,0.00,,,0.34,0.000000,,2013-03-11 03:43:00,
2013-03-10 23:53:00,32.0,32.0,-100.00,NE,56,3.0,5.0,100,0.00,,,0.34,0.000000,,2013-03-11 03:53:00,